Orbital Elements at Epoch 2459000.5 (2020-May-31.0) TDB
Reference: JPL 5 (heliocentric ecliptic J2000)
Element | Value | Uncertainty (1-sigma) | Units |
e | .6160250416989175 | 0.00034372 | |
a | 1.106435719131343 | 0.00051325 | au |
q | .4248436091162859 | 0.00018323 | au |
i | 15.53973565821763 | 0.012895 | deg |
node | 160.2570293909791 | 0.00025087 | deg |
peri | 121.6443435575991 | 0.0023847 | deg |
M | 30.37508192154785 | 0.0031563 | deg |
tp | 2458964.632371282503 (2020-Apr-25.13237128) | 0.02123 | TDB |
period | 425.0966753488472 1.16 | 0.29579 0.0008098 | d yr |
n | .8468661856848754 | 0.00058926 | deg/d |
Q | 1.788027829146401 | 0.00082942 | au |
|
| | Orbit Determination Parameters
Additional Information
|